When you browse on this site, cookies collect data to enhance your experience and personalize the content and advertising you see.
Visit our Privacy Policy to learn more. By continuing to use the site, you agree to this use of cookies and data.
  • En España
  • Lista de países
  • Para 7 días
  • Temperatura del agua
  • Mapa Satelital
  • El tiempo en el mapa
  • Informadores
  • user-avatar
    Iniciar sesión

    Tiempo cada hora Hail

    Hoy, 22 Mayo, Miércoles

    Tiempo Temperatura Precipitaciones Viento Presión Humedad
    00:00 +29°C° 0 mm 4 mps 664 mmHg 15%
    01:00 +28°C° 0 mm 4 mps 663 mmHg 17%
    02:00 +28°C° 0 mm 4 mps 663 mmHg 18%
    03:00 +27°C° 0 mm 4 mps 663 mmHg 20%
    04:00 +26°C° 0 mm 4 mps 663 mmHg 21%
    05:00 +26°C° 0 mm 3 mps 663 mmHg 22%
    06:00 +26°C° 0 mm 3 mps 663 mmHg 23%
    07:00 +27°C° 0 mm 4 mps 664 mmHg 20%
    08:00 +29°C° 0 mm 4 mps 665 mmHg 17%
    09:00 +32°C° 0 mm 5 mps 665 mmHg 15%
    10:00 +32°C° 0 mm 4 mps 665 mmHg 13%
    11:00 +33°C° 0 mm 4 mps 665 mmHg 12%
    12:00 +34°C° 0 mm 3 mps 665 mmHg 10%
    13:00 +35°C° 0 mm 3 mps 665 mmHg 9%
    14:00 +35°C° 0 mm 3 mps 665 mmHg 9%
    15:00 +36°C° 0 mm 3 mps 665 mmHg 8%
    16:00 +35°C° 0 mm 4 mps 664 mmHg 8%
    17:00 +35°C° 0 mm 4 mps 664 mmHg 9%
    18:00 +35°C° 0 mm 5 mps 664 mmHg 9%
    19:00 +34°C° 0 mm 4 mps 664 mmHg 10%
    20:00 +33°C° 0 mm 3 mps 664 mmHg 12%
    21:00 +31°C° 0 mm 3 mps 664 mmHg 13%
    22:00 +31°C° 0 mm 2 mps 664 mmHg 14%
    23:00 +30°C° 0 mm 2 mps 664 mmHg 15%

    Mañana, 23 Mayo, Jueves

    Tiempo Temperatura Precipitaciones Viento Presión Humedad
    00:00 +29°C° 0 mm 1 mps 664 mmHg 16%
    01:00 +29°C° 0 mm 1 mps 663 mmHg 16%
    02:00 +28°C° 0 mm 1 mps 663 mmHg 17%
    03:00 +28°C° 0 mm 1 mps 663 mmHg 17%
    04:00 +27°C° 0 mm 1 mps 663 mmHg 17%
    05:00 +27°C° 0 mm 1 mps 663 mmHg 18%
    06:00 +27°C° 0 mm 1 mps 663 mmHg 18%
    07:00 +28°C° 0 mm 2 mps 664 mmHg 16%
    08:00 +30°C° 0 mm 2 mps 664 mmHg 15%
    09:00 +33°C° 0 mm 3 mps 665 mmHg 13%
    10:00 +34°C° 0 mm 3 mps 665 mmHg 12%
    11:00 +35°C° 0 mm 3 mps 665 mmHg 11%
    12:00 +35°C° 0 mm 3 mps 665 mmHg 11%
    13:00 +36°C° 0 mm 4 mps 665 mmHg 10%
    14:00 +36°C° 0 mm 4 mps 664 mmHg 10%
    15:00 +37°C° 0 mm 5 mps 664 mmHg 10%
    16:00 +36°C° 0 mm 5 mps 663 mmHg 10%
    17:00 +36°C° 0 mm 5 mps 663 mmHg 10%
    18:00 +36°C° 0 mm 6 mps 663 mmHg 10%
    19:00 +35°C° 0 mm 5 mps 663 mmHg 11%
    20:00 +34°C° 0 mm 4 mps 663 mmHg 12%
    21:00 +33°C° 0 mm 4 mps 663 mmHg 13%
    22:00 +31°C° 0 mm 3 mps 663 mmHg 14%
    23:00 +31°C° 0 mm 3 mps 663 mmHg 15%

    Pasado mañana, 24 Mayo, Viernes

    Tiempo Temperatura Precipitaciones Viento Presión Humedad
    00:00 +30°C° 0 mm 2 mps 663 mmHg 16%
    01:00 +29°C° 0 mm 2 mps 663 mmHg 17%
    02:00 +29°C° 0 mm 3 mps 663 mmHg 18%
    03:00 +28°C° 0 mm 3 mps 662 mmHg 19%
    04:00 +27°C° 0 mm 3 mps 663 mmHg 20%
    05:00 +27°C° 0 mm 2 mps 663 mmHg 21%
    06:00 +27°C° 0 mm 2 mps 663 mmHg 22%
    07:00 +28°C° 0 mm 3 mps 663 mmHg 20%
    08:00 +30°C° 0 mm 4 mps 664 mmHg 18%
    09:00 +33°C° 0 mm 5 mps 665 mmHg 16%
    10:00 +34°C° 0 mm 4 mps 665 mmHg 15%
    11:00 +34°C° 0 mm 4 mps 665 mmHg 13%
    12:00 +35°C° 0 mm 3 mps 665 mmHg 12%
    13:00 +36°C° 0 mm 3 mps 664 mmHg 11%
    14:00 +36°C° 0 mm 3 mps 664 mmHg 11%
    15:00 +37°C° 0 mm 3 mps 664 mmHg 10%
    16:00 +37°C° 0 mm 3 mps 663 mmHg 10%
    17:00 +37°C° 0 mm 4 mps 663 mmHg 10%
    18:00 +37°C° 0 mm 5 mps 663 mmHg 10%
    19:00 +36°C° 0 mm 5 mps 663 mmHg 11%
    20:00 +35°C° 0 mm 5 mps 663 mmHg 11%
    21:00 +34°C° 0 mm 5 mps 664 mmHg 12%
    22:00 +33°C° 0 mm 5 mps 663 mmHg 13%
    23:00 +33°C° 0 mm 4 mps 663 mmHg 14%

    25 Mayo, Sábado

    Tiempo Temperatura Precipitaciones Viento Presión Humedad
    00:00 +32°C° 0 mm 4 mps 663 mmHg 15%
    01:00 +30°C° 0 mm 4 mps 663 mmHg 15%
    02:00 +30°C° 0 mm 4 mps 663 mmHg 16%
    03:00 +29°C° 0 mm 3 mps 662 mmHg 16%
    04:00 +29°C° 0 mm 3 mps 662 mmHg 17%
    05:00 +29°C° 0 mm 2 mps 662 mmHg 17%
    06:00 +28°C° 0 mm 2 mps 663 mmHg 17%
    07:00 +30°C° 0 mm 3 mps 663 mmHg 15%
    08:00 +33°C° 0 mm 4 mps 664 mmHg 13%
    09:00 +35°C° 0 mm 5 mps 665 mmHg 11%
    10:00 +36°C° 0 mm 4 mps 665 mmHg 10%
    11:00 +37°C° 0 mm 3 mps 665 mmHg 10%
    12:00 +37°C° 0 mm 2 mps 665 mmHg 9%
    13:00 +38°C° 0 mm 2 mps 664 mmHg 8%
    14:00 +38°C° 0 mm 2 mps 664 mmHg 8%
    15:00 +38°C° 0 mm 2 mps 663 mmHg 7%
    16:00 +38°C° 0 mm 2 mps 663 mmHg 7%
    17:00 +38°C° 0 mm 3 mps 663 mmHg 7%
    18:00 +38°C° 0 mm 4 mps 663 mmHg 7%
    19:00 +37°C° 0 mm 4 mps 663 mmHg 7%
    20:00 +36°C° 0 mm 4 mps 663 mmHg 8%
    21:00 +36°C° 0 mm 4 mps 663 mmHg 8%
    22:00 +35°C° 0 mm 4 mps 663 mmHg 9%
    23:00 +34°C° 0 mm 4 mps 662 mmHg 10%

    26 Mayo, Domingo

    Tiempo Temperatura Precipitaciones Viento Presión Humedad
    00:00 +33°C° 0 mm 3 mps 662 mmHg 11%
    01:00 +31°C° 0 mm 3 mps 662 mmHg 11%
    02:00 +31°C° 0 mm 2 mps 661 mmHg 11%
    03:00 +30°C° 0 mm 2 mps 661 mmHg 12%
    04:00 +30°C° 0 mm 2 mps 661 mmHg 12%
    05:00 +30°C° 0 mm 2 mps 661 mmHg 12%
    06:00 +29°C° 0 mm 2 mps 661 mmHg 12%
    07:00 +31°C° 0 mm 2 mps 662 mmHg 10%
    08:00 +34°C° 0 mm 3 mps 663 mmHg 9%
    09:00 +36°C° 0 mm 4 mps 664 mmHg 8%
    10:00 +37°C° 0 mm 3 mps 663 mmHg 7%
    11:00 +38°C° 0 mm 3 mps 663 mmHg 7%
    12:00 +38°C° 0 mm 2 mps 663 mmHg 6%
    13:00 +39°C° 0 mm 2 mps 663 mmHg 6%
    14:00 +39°C° 0 mm 2 mps 662 mmHg 5%
    15:00 +39°C° 0 mm 2 mps 662 mmHg 5%
    16:00 +39°C° 0 mm 3 mps 662 mmHg 5%
    17:00 +39°C° 0 mm 3 mps 662 mmHg 5%
    18:00 +40°C° 0 mm 4 mps 662 mmHg 5%
    19:00 +38°C° 0 mm 4 mps 662 mmHg 5%
    20:00 +38°C° 0 mm 4 mps 662 mmHg 6%
    21:00 +37°C° 0 mm 5 mps 662 mmHg 6%
    22:00 +36°C° 0 mm 4 mps 662 mmHg 7%
    23:00 +35°C° 0 mm 4 mps 661 mmHg 8%

    27 Mayo, Lunes

    Tiempo Temperatura Precipitaciones Viento Presión Humedad
    00:00 +34°C° 0 mm 4 mps 661 mmHg 9%
    01:00 +33°C° 0 mm 3 mps 660 mmHg 9%
    02:00 +31°C° 0 mm 2 mps 660 mmHg 10%
    03:00 +30°C° 0 mm 1 mps 660 mmHg 10%
    04:00 +30°C° 0 mm 1 mps 660 mmHg 11%
    05:00 +30°C° 0 mm 1 mps 660 mmHg 11%
    06:00 +30°C° 0 mm 1 mps 660 mmHg 11%
    07:00 +32°C° 0 mm 1 mps 661 mmHg 10%
    08:00 +34°C° 0 mm 1 mps 662 mmHg 9%
    09:00 +36°C° 0 mm 1 mps 663 mmHg 8%
    10:00 +37°C° 0 mm 2 mps 662 mmHg 7%
    11:00 +38°C° 0 mm 3 mps 662 mmHg 7%
    12:00 +39°C° 0 mm 3 mps 662 mmHg 6%
    13:00 +39°C° 0 mm 3 mps 662 mmHg 6%
    14:00 +40°C° 0 mm 3 mps 662 mmHg 6%
    15:00 +40°C° 0 mm 3 mps 661 mmHg 5%
    16:00 +40°C° 0 mm 3 mps 661 mmHg 6%
    17:00 +39°C° 0 mm 3 mps 661 mmHg 6%
    18:00 +39°C° 0 mm 3 mps 661 mmHg 6%
    19:00 +38°C° 0 mm 3 mps 661 mmHg 7%
    20:00 +38°C° 0 mm 3 mps 661 mmHg 8%
    21:00 +37°C° 0 mm 2 mps 662 mmHg 8%
    22:00 +36°C° 0 mm 2 mps 661 mmHg 9%
    23:00 +34°C° 0 mm 1 mps 661 mmHg 10%
    Mostrar más